This is the latest recevied weather packets stored in our database for station/object JH5HTX-13. If no packets are shown the sender has not sent any weather packets the latest 10 day(s).
| Time | Temp. | Humidity | Pressure | Rain* | Wind** | Luminosity | Snow |
|---|---|---|---|---|---|---|---|
| 1777614264 | 16.11° C | 68% | 1003.5 hPa | 1.52 mm | - | - | - |
| 1777613364 | 17.22° C | 70% | 1003.2 hPa | 0 mm | - | - | - |
| 1777612464 | 17.78° C | 71% | 1002.9 hPa | 0 mm | - | - | - |
| 1777611564 | 17.22° C | 72% | 1002.7 hPa | 0 mm | - | - | - |
| 1777610664 | 17.22° C | 71% | 1002.5 hPa | 0 mm | - | - | - |
| 1777609764 | 16.67° C | 72% | 1003 hPa | 0 mm | - | - | - |
| 1777608864 | 16.67° C | 71% | 1003.2 hPa | 0 mm | - | - | - |
| 1777607963 | 17.78° C | 70% | 1003 hPa | 0 mm | - | - | - |
| 1777607063 | 17.78° C | 72% | 1003.2 hPa | 0 mm | - | - | - |
| 1777606163 | 17.78° C | 74% | 1003.3 hPa | 0 mm | - | - | - |
| 1777605263 | 17.78° C | 73% | 1003.4 hPa | 0 mm | - | - | - |
| 1777604363 | 17.22° C | 76% | 1003.4 hPa | 1.52 mm | - | - | - |
| 1777603463 | 17.22° C | 76% | 1003.6 hPa | 1.52 mm | - | - | - |
| 1777602563 | 17.78° C | 73% | 1003.7 hPa | 1.52 mm | - | - | - |
| 1777601663 | 17.78° C | 73% | 1003.6 hPa | 1.52 mm | - | - | - |
| 1777600762 | 18.33° C | 75% | 1003.6 hPa | 0 mm | - | - | - |
| 1777599862 | 18.33° C | 73% | 1003.8 hPa | 0 mm | - | - | - |
| 1777598962 | 18.33° C | 76% | 1003.8 hPa | 0 mm | - | - | - |
| 1777598062 | 18.33° C | 79% | 1003.7 hPa | 0 mm | - | - | - |
| 1777597162 | 17.78° C | 81% | 1003.9 hPa | 0 mm | - | - | - |
| 1777596262 | 17.78° C | 82% | 1003.9 hPa | 0 mm | - | - | - |
| 1777595362 | 17.78° C | 83% | 1003.6 hPa | 0 mm | - | - | - |
| 1777594462 | 17.22° C | 85% | 1003.5 hPa | 0 mm | - | - | - |
| 1777593562 | 17.22° C | 86% | 1003.5 hPa | 0 mm | - | - | - |
| 1777592662 | 16.67° C | 88% | 1003.6 hPa | 0 mm | - | - | - |
* Rain latest hour (hover to see other rain measurements)
** Current wind speed in m/s (hover to see current wind gust speed)